Datum Uhrzeit Temperatur Luft Windgeschw. Regen Regen (1h) Temp (1h) Luftdruck Windrichtung Taupunkt Sensor
2020-05-27 01:19:00 7.5 79.0 0.0 0.0 0.0 -1.1 0.0 Kombisensor
2020-05-27 01:18:00 7.5 79.0 0.0 0.0 0.0 -1.3 0.0 Kombisensor
2020-05-27 01:15:00 7.4 79.0 0.0 0.0 0.0 -1.5 0.0 Kombisensor
2020-05-27 01:14:00 7.4 79.0 0.0 0.0 0.0 -1.5 0.0 Kombisensor
2020-05-27 01:12:00 7.4 79.0 0.0 0.0 0.0 -1.5 0.0 Kombisensor
2020-05-27 01:09:00 7.5 79.0 0.0 0.0 0.0 -1.4 0.0 Kombisensor
2020-05-27 01:09:00 7.5 79.0 0.0 0.0 0.0 -1.3 0.0 Kombisensor
2020-05-27 01:06:00 7.6 79.0 0.0 0.0 0.0 -1.3 0.0 Kombisensor
2020-05-27 01:04:00 7.6 79.0 0.0 0.0 0.0 -1.3 0.0 Kombisensor
2020-05-27 01:03:00 7.6 79.0 0.0 0.0 0.0 -1.3 0.0 Kombisensor
2020-05-27 01:00:00 7.7 79.0 0.0 0.0 0.0 -1.4 0.0 Kombisensor
2020-05-27 00:59:00 7.6 79.0 0.0 0.0 0.0 -4.4 0.0 Kombisensor
2020-05-27 00:57:00 7.6 79.0 0.0 0.0 0.0 0.1 0.0 Kombisensor
2020-05-27 00:54:00 7.5 79.0 0.0 0.0 0.0 0.0 0.0 Kombisensor
2020-05-27 00:54:00 7.5 79.0 0.0 0.0 0.0 -0.2 0.0 Kombisensor
2020-05-27 00:49:00 7.7 79.0 0.0 0.0 0.0 0.0 0.0 Kombisensor
2020-05-27 00:48:00 7.7 79.0 0.0 0.0 0.0 -0.2 0.0 Kombisensor
2020-05-27 00:45:00 7.9 79.0 0.0 0.0 0.0 0.0 0.0 Kombisensor
2020-05-27 00:44:00 7.9 79.0 0.0 0.0 0.0 0.0 0.0 Kombisensor
2020-05-27 00:42:00 7.9 79.0 0.0 0.0 0.0 -0.1 0.0 Kombisensor
2020-05-27 00:39:00 8.0 79.0 0.0 0.0 0.0 -0.1 0.0 Kombisensor
2020-05-27 00:36:00 8.1 79.0 0.0 0.0 0.0 0.0 0.0 Kombisensor
2020-05-27 00:34:00 8.1 79.0 0.0 0.0 0.0 0.0 0.0 Kombisensor
2020-05-27 00:34:00 8.1 79.0 0.0 0.0 0.0 0.0 0.0 Kombisensor
2020-05-27 00:31:00 8.1 79.0 0.0 0.0 0.0 0.0 0.0 Kombisensor
2020-05-27 00:29:00 8.1 79.0 0.0 0.0 0.0 0.0 0.0 Kombisensor
2020-05-27 00:28:00 8.1 79.0 0.0 0.0 0.0 -0.1 0.0 Kombisensor
2020-05-27 00:25:00 8.2 79.0 0.0 0.0 0.0 -0.3 0.0 Kombisensor
2020-05-27 00:24:00 8.5 79.0 0.0 0.0 0.0 0.0 0.0 Kombisensor
2020-05-27 00:22:00 8.5 79.0 0.0 0.0 0.0 -0.1 0.0 Kombisensor
2020-05-27 00:19:00 8.6 79.0 0.0 0.0 0.0 0.0 0.0 Kombisensor
2020-05-27 00:19:00 8.6 79.0 0.0 0.0 0.0 -0.2 0.0 Kombisensor
2020-05-27 00:16:00 8.8 79.0 0.0 0.0 0.0 -0.1 0.0 Kombisensor
2020-05-27 00:14:00 8.9 79.0 0.0 0.0 0.0 0.0 0.0 Kombisensor
2020-05-27 00:13:00 8.9 79.0 0.0 0.0 0.0 0.0 0.0 Kombisensor
2020-05-27 00:10:00 8.9 79.0 0.0 0.0 0.0 0.1 0.0 Kombisensor
2020-05-27 00:09:00 8.8 79.0 0.0 0.0 0.0 0.0 0.0 Kombisensor
2020-05-27 00:07:00 8.8 79.0 0.0 0.0 0.0 -0.1 0.0 Kombisensor
2020-05-27 00:04:00 8.9 79.0 0.0 0.0 0.0 0.0 0.0 Kombisensor
2020-05-27 00:04:00 8.9 79.0 0.0 0.0 0.0 -0.2 0.0 Kombisensor
2020-05-27 00:01:00 9.1 79.0 0.0 0.0 0.0 -1.5 0.0 Kombisensor